Lexington Weather

Lexington, Massachusetts, USA

24°F
3/3/2021 3:31am 
  • Lexington Conditions: Overcast
  • Temperature: 23.9°F / -4.5°CWarmer 1.4°F than last hour.
  • Dew Point: 10.9°FIncreased 1.0°Fsince last hour.
  • Relative Humidity: 57%Decreased 1.0% since last hour.
  • Wind: Wind from SSW SSW 1 mph, 10-min avg: 1 mph, gust: 8 mph
  • Barometer: 29.86 inFalling 0.03  inHg/hr Falling Slowly
  • Visibility: 10 miles
  • Snow Today: 0.0 in
  •   

Regional Weather Roundup
for Boston / Norton, MA

        
000
ASUS41 KBOX 272204
RWRBOX

REGIONAL WEATHER ROUNDUP
NATIONAL WEATHER SERVICE BOSTON/NORTON MA
500 PM EST SAT FEB 27 2021

NOTE:  "FAIR" INDICATES FEW OR NO CLOUDS BELOW 12,000 FEET WITH NO 
SIGNIFICANT WEATHER AND/OR OBSTRUCTIONS TO VISIBILITY.

MAZALL-272300-
EASTERN MASSACHUSETTS
  
CITY           SKY/WX    TMP DP  RH WIND       PRES   REMARKS
BOSTON         CLOUDY    47  46  97 SW9       29.92F                  
BEVERLY        FOG       43  41  93 CALM      29.90F VSB 1/4          
LAWRENCE       LGT RAIN  39  38  96 W3        29.92F VSB 1/2          
BEDFORD        FOG       38  36  92 NW5       29.91F VSB 1            
BLUE HILL        N/A     46  46 100 S14G24    29.88F                  
NORWOOD        CLOUDY    50  46  86 S6        29.91F                  
MARSHFIELD     CLOUDY    52  52 100 SW10G17   29.92S FOG              
PLYMOUTH       LGT RAIN  50  48  93 SW15G26   29.93S FOG              
TAUNTON        CLOUDY    51  49  92 SW8G17    29.94S FOG              
NEW BEDFORD    CLOUDY    50  48  93 SW12      29.94F FOG              
$$

MAZALL-272300-
CAPE COD AND THE ISLANDS
  
CITY           SKY/WX    TMP DP  RH WIND       PRES   REMARKS
FALMOUTH       CLOUDY    48  48 100 S23       29.94F FOG              
HYANNIS        FOG       45  44  97 SW9G18    29.94S VSB 1            
CHATHAM        LGT RAIN  47  45  93 S12G28    29.95F FOG              
PROVINCETOWN   LGT RAIN  46  45  96 S20G29    29.94F FOG              
NANTUCKET      CLOUDY    45  45 100 S15       29.97F FOG              
MARTHAS VNYRD  LGT RAIN  48  47  96 SW10      29.96S VSB 1            
$$
 
MAZALL-272300-
CENTRAL AND WESTERN MASSACHUSETTS
  
CITY           SKY/WX    TMP DP  RH WIND       PRES   REMARKS
WORCESTER      CLOUDY    45  42  89 W15       29.91R                  
FITCHBURG      CLOUDY    35  35 100 NW3       29.94S                  
ORANGE         FOG       37  37 100 CALM      29.96R VSB 1/4          
SPRINGFIELD    CLOUDY    39  39 100 NE3       29.94R FOG              
WESTFIELD      CLOUDY    37  36  96 N3        29.96R FOG              
NORTH ADAMS    CLOUDY    39  37  92 CALM      29.98R                  
PITTSFIELD     CLOUDY    41  40  96 W8        29.94R                  
$$
 
RIZALL-272300-
RHODE ISLAND
  
CITY           SKY/WX    TMP DP  RH WIND       PRES   REMARKS
PROVIDENCE     CLOUDY    51  50  96 SW12      29.92F FOG              
NEWPORT        FOG       46  46 100 SW8       29.95S VSB 1/4          
BLOCK ISLAND   LGT RAIN  46  45  96 SW14G20   29.96R VSB 1/2          
SMITHFIELD     CLOUDY    48  48 100 SW5       29.92F                  
WESTERLY       FOG       45  45 100 SW5       29.94F VSB 1/4          
$$
 
CTZALL-272300-
CONNECTICUT
  
CITY           SKY/WX    TMP DP  RH WIND       PRES   REMARKS
BRADLEY INTL   FOG       40  38  93 CALM      29.95S VSB 3/4          
HARTFORD       MOCLDY    43  41  93 CALM      29.96R FOG              
BRIDGEPORT     CLOUDY    46  45  93 SW8       29.99R                  
DANBURY        PTCLDY    48  42  80 VRB5      30.00R                  
GROTON         FOG       47  47 100 W6        29.95S VSB 1/2          
NEW HAVEN      CLOUDY    49  47  93 SW3       29.97R                  
CHESTER        CLOUDY    50  50 100 W5        29.95R                  
MERIDEN        MOCLDY    48  44  86 SW5       29.95R                  
WILLIMANTIC    CLOUDY    48  46  93 SW3       29.94S FOG              
OXFORD         MOCLDY    46  46 100 W8        29.96R                  
$$

MEZ002-015-021-024-NHZ003-005-008-011-012-014-VTZ005-008-272300-
NORTHERN NEW ENGLAND
  
CITY           SKY/WX    TMP DP  RH WIND       PRES   REMARKS
PORTLAND ME    LGT RAIN  41  41 100 S3        29.92F FOG              
BANGOR ME      LGT SNOW  36  34  92 S13       29.91F FOG     WCI  27  
CONCORD NH     CLOUDY    33  31  92 NW9       29.95S FOG     WCI  25  
MANCHESTER NH  CLOUDY    36  33  89 NW7       29.93F FOG     WCI  30  
NASHUA NH      CLOUDY    36  36 100 NW7       29.95R WCI  30          
PORTSMOUTH NH  FOG       40  40  99 CALM      29.88F VSB 3/16         
JAFFREY NH     CLOUDY    37  36  96 CALM      29.92R FOG              
KEENE NH       CLOUDY    37  35  92 SE3       29.95S FOG              
BURLINGTON VT  LGT RAIN  40  35  83 S15       29.89R WCI  32          
MT. WASHINGTON SNOW      27  27 100 W66G77      N/A  VSB 0   WCI   5  
$$

NYZ052-076-272300-
EASTERN NEW YORK
  
CITY           SKY/WX    TMP DP  RH WIND       PRES   REMARKS
ALBANY         MOCLDY    42  40  92 SE7       29.98R                  
NEW YORK CITY  MOCLDY    51  43  74 W12       30.01R                  
$$
 
ANZALL-272300-
MARINE OBSERVATIONS
  
STATION/POSITION TIME  TEMP    WIND        PRES    VSBY  WAVE
                       AIR SEA DIR/SP/G                  HT/PER
                 (UTC) (F)     (DEG/KT/KT) (MB)    (MI)  (FT/S)
BOSTON BUOY      2140   43 39  230/  6/  8 1014.3R
BUZZARDS BAY     2100          190/ 25/ 26 1014.2F
NANTUCKET SOUND  2140      37  180/ 17/ 21   N/A
MASS BAY-STELLWA 2104   43     200/ 12/ 14 1012.7F  1 7/8  6/ 6
ISLE OF SHOALS   2100   42     170/ 16/ 17 1013.5F
S OF BLOCK IS    2126      40                N/A           9/ 8
$$

......................KEY.........................
  SKY/WX - SKY CONDITION/PRESENT WEATHER
  TMP    - TEMPERATURE IN FAHRENHEIT
  DWPT   - DEWPOINT IN FAHRENHEIT
  RH     - RELATIVE HUMIDITY IN PERCENT
  WIND   - DIRECTION AND SPEED IN MPH
  PRES   - MEAN SEA LEVEL PRESSURE IN INCHES OF HG
  WCI    - WIND CHILL INDEX
  VSB    - VISIBILITY IN MILES
  HX     - HEAT INDEX
  TC     - TEMPERATURE IN CELSIUS
  VRB    - VARIABLE WIND DIRECTION
  N/A    - NOT AVAILABLE
  
      

Other recent Regional Weather Roundups

Wed Mar 3, 3:04am

Wed Mar 3, 2:04am

Wed Mar 3, 1:04am

Wed Mar 3, 12:04am

Tue Mar 2, 11:04pm

Tue Mar 2, 10:05pm

Tue Mar 2, 9:04pm

Tue Mar 2, 8:04pm

Tue Mar 2, 7:04pm

Tue Mar 2, 6:04pm

Tue Mar 2, 5:04pm

Tue Mar 2, 4:05pm

Tue Mar 2, 3:04pm

Tue Mar 2, 2:04pm

Tue Mar 2, 1:04pm

Tue Mar 2, 12:04pm

Tue Mar 2, 11:04am

Tue Mar 2, 10:05am

Tue Mar 2, 9:04am

Tue Mar 2, 8:04am

Tue Mar 2, 7:04am

Tue Mar 2, 6:05am

Tue Mar 2, 5:04am

Tue Mar 2, 4:04am

Tue Mar 2, 3:04am

Tue Mar 2, 2:04am

Tue Mar 2, 1:04am

Tue Mar 2, 12:04am

Mon Mar 1, 11:04pm

Mon Mar 1, 10:04pm

Mon Mar 1, 9:04pm

Mon Mar 1, 8:04pm

Mon Mar 1, 7:04pm

Mon Mar 1, 6:04pm

Mon Mar 1, 5:04pm

Mon Mar 1, 4:05pm

Mon Mar 1, 3:05pm

Mon Mar 1, 2:04pm

Mon Mar 1, 1:04pm

Mon Mar 1, 12:04pm

Mon Mar 1, 11:04am

Mon Mar 1, 10:04am

Mon Mar 1, 9:04am

Mon Mar 1, 8:05am

Mon Mar 1, 7:04am

Mon Mar 1, 6:04am

Mon Mar 1, 5:04am

Mon Mar 1, 4:05am

Mon Mar 1, 3:04am

Mon Mar 1, 2:04am

Mon Mar 1, 1:04am

Mon Mar 1, 12:05am

Sun Feb 28, 11:04pm

Sun Feb 28, 10:04pm

Sun Feb 28, 9:04pm

Sun Feb 28, 8:04pm

Sun Feb 28, 7:04pm

Sun Feb 28, 6:05pm

Sun Feb 28, 5:04pm

Sun Feb 28, 4:05pm

Sun Feb 28, 3:04pm

Sun Feb 28, 2:04pm

Sun Feb 28, 1:04pm

Sun Feb 28, 12:04pm

Sun Feb 28, 11:04am

Sun Feb 28, 10:04am

Sun Feb 28, 9:04am

Sun Feb 28, 8:04am

Sun Feb 28, 7:04am

Sun Feb 28, 6:04am

Sun Feb 28, 5:04am

Sun Feb 28, 4:04am

Sun Feb 28, 3:04am

Sun Feb 28, 2:04am

Sun Feb 28, 1:04am

Sun Feb 28, 12:04am

Sat Feb 27, 11:04pm

Sat Feb 27, 10:04pm

Sat Feb 27, 9:04pm

Sat Feb 27, 8:04pm

Sat Feb 27, 7:04pm

Sat Feb 27, 6:04pm

Sat Feb 27, 4:04pm

Sat Feb 27, 3:05pm

Sat Feb 27, 2:05pm

Sat Feb 27, 1:04pm

Sat Feb 27, 12:04pm

Sat Feb 27, 11:04am

Sat Feb 27, 10:04am

Sat Feb 27, 9:05am

Sat Feb 27, 8:04am

Sat Feb 27, 7:04am

Sat Feb 27, 6:04am

Sat Feb 27, 5:04am

Sat Feb 27, 4:04am

Sat Feb 27, 3:04am

Sat Feb 27, 2:04am

Sat Feb 27, 1:04am

Sat Feb 27, 12:04am

Fri Feb 26, 11:04pm

Fri Feb 26, 10:04pm

Fri Feb 26, 9:04pm

Fri Feb 26, 8:04pm

Fri Feb 26, 7:04pm

Fri Feb 26, 6:04pm

Fri Feb 26, 5:04pm

Fri Feb 26, 4:04pm

Fri Feb 26, 3:04pm

Fri Feb 26, 2:04pm

Fri Feb 26, 1:04pm

Fri Feb 26, 12:04pm

Fri Feb 26, 11:04am

Fri Feb 26, 10:04am

Fri Feb 26, 9:04am

Fri Feb 26, 8:04am

Fri Feb 26, 7:04am

Fri Feb 26, 6:04am

Fri Feb 26, 5:04am

Fri Feb 26, 4:04am

Fri Feb 26, 3:04am

Fri Feb 26, 2:04am

Fri Feb 26, 1:04am

Fri Feb 26, 12:04am

Thu Feb 25, 11:04pm

Thu Feb 25, 10:04pm

Thu Feb 25, 9:04pm

Thu Feb 25, 8:05pm

Thu Feb 25, 7:05pm

Thu Feb 25, 6:04pm

Thu Feb 25, 5:04pm

Thu Feb 25, 4:05pm

Thu Feb 25, 3:05pm

Thu Feb 25, 2:04pm

Thu Feb 25, 1:04pm

Thu Feb 25, 12:05pm

Thu Feb 25, 11:04am

Thu Feb 25, 10:04am

Thu Feb 25, 9:04am

Thu Feb 25, 8:04am

Thu Feb 25, 7:04am

Thu Feb 25, 6:04am

Thu Feb 25, 5:04am

Thu Feb 25, 4:04am

Thu Feb 25, 3:04am

Thu Feb 25, 2:04am

Thu Feb 25, 1:04am

Thu Feb 25, 12:04am

Wed Feb 24, 11:04pm

Wed Feb 24, 10:05pm

Wed Feb 24, 9:04pm

Wed Feb 24, 8:04pm

Wed Feb 24, 7:04pm

Wed Feb 24, 6:04pm

Wed Feb 24, 5:04pm

Wed Feb 24, 4:04pm

Wed Feb 24, 3:04pm

Wed Feb 24, 2:05pm

Wed Feb 24, 1:05pm

Wed Feb 24, 12:05pm

Wed Feb 24, 11:04am

Wed Feb 24, 10:04am

Wed Feb 24, 9:04am

Wed Feb 24, 8:04am

Wed Feb 24, 7:04am

Wed Feb 24, 6:04am

Wed Feb 24, 5:04am

Wed Feb 24, 4:04am

Meta data:

ID: 85323a3f-88f9-4ff4-9d8b-f6a55eecc941
Link: https://api.weather.gov/products/85323a3f-88f9-4ff4-9d8b-f6a55eecc941